Location: Gleizolles
(44.4833°N, 6.7667°E)
Time: 21:36:03
(UTC+00:00)

A-11 Canister half - Pass Details

Date: 30 June 2024
Orbit: 1524 x 1684 km, 47.3° (Epoch: 18 July)

Event Time Altitude Azimuth Distance (km) Brightness Sun altitude
Rises 08:39:49 0° 203° (SSW) 4,823 11.6 48.2°
Reaches altitude 10° 08:43:21 10° 194° (SSW) 3,816 11.2 48.8°
Maximum altitude 08:51:38 34° 135° (SE) 2,391 11.5 50.2°
Drops below altitude 10° 08:59:42 10° 75° (ENE) 3,727 11.7 51.6°
Sets 09:03:05 0° 67° (ENE) 4,697 11.9 52.1°
